Portada
METAR-TAF:

METAR-TAF

Aeropuertos :

Aeródromo de Teruel

Teruel, España

latitud: 40-24-43N, longitud: 01-13-03W, altitud: 1030 m

Observación

El informe se hizo hace 31 minutos, a las 01:00 UTC
Viento 7 kt del este-sureste
Temperatura 6°C
Humedad 87%
Presión 1024 hPa
Visibilidad 10 km o más
Cielo nuboso a una altura de 1400 ft
Cielo cubierto a una altura de 1900 ft

METAR: LETL 020100Z AUTO 12007KT 9999 BKN014 OVC019 06/04 Q1024

Hora: 02:31 (01:31 UTC)


TAF: falta

Observaciones y pronósticos meteorológicos de más de 4000 aeropuertos (mensajes METAR y TAF).

Los puntos amarillos y rojos representan las estaciones disponibles.

Ponga el ratón en el punto deseado para ver el nombre de la estación.

Haga clic para ver las observaciones y los pronósticos meteorológicos.

Para cambiar el mapa : haga clic en los botones verdes con una cruz de color negro para hacer un zoom, en el botón verde con un guión para alejar o en las flechas verdes para mapas adyacentes.


METAR-TAF: